Regional Weather Roundup
Issued by NWS

Home | Current Version | Previous Version | Text Only | Print | Product List | Glossary On
Versions: 1 2 3 4 5 6 7 8 9 10 11 12 13 14 15 16 17 18 19 20 21 22 23 24 25 26 27 28 29 30 31 32 33 34 35 36 37 38 39 40 41 42 43 44 45 46 47 48 49 50
797
ASUS43 KLSX 230507
RWRMO

WEATHER SUMMARY FOR MISSOURI
NATIONAL WEATHER SERVICE SPRINGFIELD MO
1200 AM CDT SUN APR 23 2017

NOTE: "FAIR" INDICATES FEW OR NO CLOUDS BELOW 12,000 FEET WITH NO
       SIGNIFICANT WEATHER AND/OR OBSTRUCTIONS TO VISIBILITY.
       CURRENT SKY AND/OR WEATHER CONDITIONS ARE NOT AVAILABLE FOR
       CHILLICOTHE AND FARMINGTON.

MOZ001>031-035>038-043-044-053-054-230600-
...NORTHERN AND WESTERN MISSOURI...

CITY           SKY/WX    TMP DP  RH WIND       PRES   REMARKS
KANSAS CTY INT CLEAR     49  31  49 N5        30.19R
KANSAS C DTWN  CLEAR     52  30  43 N3        30.18R
LEE`S SUMMIT   CLEAR     50  32  50 N6        30.18R
ST JOSEPH      CLEAR     41  35  79 N3        30.20R
CHILLICOTHE      N/A     43  35  73 CALM      30.19S
KIRKSVILLE     CLEAR     44  34  67 N5        30.17S

$$
MOZ066>068-077>081-088>096-101>105-230600-
...SOUTHWEST MISSOURI...

CITY           SKY/WX    TMP DP  RH WIND       PRES   REMARKS
SPRINGFIELD    CLOUDY    48  44  86 NW6       30.09F
JOPLIN         MOCLDY    47  45  93 CALM      30.14S
BRANSON        CLOUDY    46  46 100 CALM      30.09F

$$
MOZ032>034-039>042-045>050-055>058-069>072-230600-
...CENTRAL MISSOURI...

CITY           SKY/WX    TMP DP  RH WIND       PRES   REMARKS
COLUMBIA       CLEAR     46  36  68 N8        30.13R
JEFFERSON CITY CLEAR     54  35  48 N7        30.12R
ROLLA          CLOUDY    46  38  73 NE7       30.08S
WHITEMAN AFB   CLEAR     44  36  72 N6        30.14R
OSAGE BEACH    PTCLDY    48  39  71 N5        30.11S

$$
MOZ051-052-059>065-230600-
...EAST CENTRAL MISSOURI...

CITY           SKY/WX    TMP DP  RH WIND       PRES   REMARKS
ST LOUIS INTL  CLEAR     49  37  63 E6        30.10S
SPIRIT OF STL  CLEAR     42  40  92 CALM      30.10S
ST CHARLES     CLEAR     50  34  54 NE8       30.11R

$$
MOZ072>076-082>087-097>100-106>115-230600-
...SOUTH CENTRAL AND SOUTHEAST MISSOURI...

CITY           SKY/WX    TMP DP  RH WIND       PRES   REMARKS
CAPE GIRARDEAU LGT RAIN  50  44  80 NE15G22   30.01F
FARMINGTON     CLOUDY    48  42  80 N5        30.06F
POPLAR BLUFF   LGT RAIN  49  47  93 N9        30.02S
WEST PLAINS    CLOUDY    49  42  77 N8        30.05S

$$




USA.gov is the U.S. government's official web portal to all federal, state and local government web resources and services.